GW0525 Weather Reports


time (UTC)temp
F
wind
direction
speed
knots
gust
knots
rain 1hr
in
rain 24hr
in
rain mn
in
humidity
%
barometer
mb
20260507170100 57 232 5.2 10.4 0.00 0.00 0.00 23 1010.2
20260507164630 57 271 3.5 12.2 0.00 0.00 0.00 23 1010.3
20260507163059 56 271 3.5 7.8 0.00 0.00 0.00 24 1010.4
20260507161604 56 136 1.7 7.8 0.00 0.00 0.00 22 1010.4
20260507160058 55 0 3.5 8.7 0.00 0.00 0.00 22 1010.5
20260507154601 54 160 4.3 7.8 0.00 0.00 0.00 23 1010.6
20260507153059 53 215 5.2 8.7 0.00 0.00 0.00 24 1010.6
20260507151557 52 208 5.2 8.7 0.00 0.00 0.00 26 1010.7
20260507150059 51 191 3.5 7.8 0.00 0.00 0.00 27 1010.7
20260507144601 49 204 2.6 9.6 0.00 0.00 0.00 28 1010.4
20260507143119 49 172 1.7 4.3 0.00 0.00 0.00 31 1010.4
20260507141604 47 0 0.0 0.9 0.00 0.00 0.00 33 1010.5
20260507140057 47 0 0.0 0.0 0.00 0.00 0.00 32 1010.6
20260507134558 46 0 0.0 0.9 0.00 0.00 0.00 33 1010.5
20260507133100 44 0 0.0 0.9 0.00 0.00 0.00 35 1010.4
20260507131605 42 0 0.0 0.0 0.00 0.00 0.00 40 1010.3
20260507130057 40 0 0.0 0.0 0.00 0.00 0.00 40 1010.2
20260507124604 38 0 0.0 0.0 0.00 0.00 0.00 43 1010.1
20260507123100 37 0 0.0 0.9 0.00 0.00 0.00 42 1010.1
20260507121557 37 0 0.0 0.9 0.00 0.00 0.00 41 1010.1
20260507120059 37 0 0.0 0.0 0.00 0.00 0.00 41 1009.9
20260507114610 37 0 0.0 0.9 0.00 0.00 0.00 42 1009.9
20260507113130 37 0 0.0 0.0 0.00 0.00 0.00 41 1009.9
20260507111600 36 220 0.9 1.7 0.00 0.00 0.00 42 1009.9
20260507104600 37 244 0.0 1.7 0.00 0.00 0.00 40 1009.9
20260507103101 38 0 0.0 0.9 0.00 0.00 0.00 39 1009.8
20260507101600 38 0 0.0 0.0 0.00 0.00 0.00 39 1009.9
20260507100121 37 0 0.0 0.0 0.00 0.00 0.00 40 1009.9
20260507094610 37 0 0.0 0.0 0.00 0.00 0.00 40 1009.9
20260507093100 37 0 0.0 0.0 0.00 0.00 0.00 39 1009.6
20260507091635 37 0 0.0 0.0 0.00 0.00 0.00 39 1009.7
20260507084611 39 0 0.0 0.9 0.00 0.00 0.00 37 1009.8
20260507083100 38 0 0.0 0.0 0.00 0.00 0.00 39 1009.8
20260507081602 39 0 0.0 0.9 0.00 0.00 0.00 37 1009.8
20260507080105 39 0 2.6 6.1 0.00 0.00 0.00 38 1009.9
20260507074603 39 233 4.3 5.2 0.00 0.00 0.00 37 1009.9
20260507073104 38 244 5.2 7.0 0.00 0.00 0.00 37 1010.0
20260507071601 39 238 3.5 3.5 0.00 0.00 0.00 36 1009.9
20260507070107 39 244 2.6 4.3 0.00 0.00 0.00 35 1009.8
20260507064601 40 196 4.3 6.1 0.00 0.00 0.00 34 1009.7
20260507063102 38 232 3.5 4.3 0.00 0.00 0.00 36 1009.7
20260507061601 39 235 2.6 3.5 0.00 0.00 0.00 36 1009.6
20260507054601 40 233 3.5 3.5 0.00 0.00 0.00 35 1009.7
20260507053101 39 234 1.7 2.6 0.00 0.00 0.00 38 1009.8
20260507051603 37 232 1.7 1.7 0.00 0.00 0.00 40 1010.0
20260507050100 39 0 0.0 3.5 0.00 0.00 0.00 37 1009.9
20260507044615 41 37 0.9 1.7 0.00 0.00 0.00 33 1010.0
20260507043127 42 30 0.0 0.9 0.00 0.00 0.00 33 1010.2
20260507041604 42 0 0.0 0.0 0.00 0.00 0.00 32 1010.3
20260507040100 42 0 0.0 0.0 0.00 0.00 0.00 32 1010.4
20260507034601 43 0 0.0 2.6 0.00 0.00 0.00 31 1010.4
20260507033101 43 27 1.7 3.5 0.00 0.00 0.00 31 1010.4
20260507031559 43 333 3.5 7.0 0.00 0.00 0.00 31 1010.5
20260507030101 43 344 3.5 6.1 0.00 0.00 0.00 32 1010.6
20260507024600 44 26 4.3 6.1 0.00 0.00 0.00 31 1010.6
20260507023110 44 340 3.5 6.1 0.00 0.00 0.00 31 1010.6
20260507021600 47 24 3.5 5.2 0.00 0.00 0.00 28 1010.6
20260507020105 48 24 5.2 7.8 0.00 0.00 0.00 27 1010.6
20260507014602 49 345 6.1 10.4 0.00 0.00 0.00 27 1010.7
20260507013100 50 334 7.0 10.4 0.00 0.00 0.00 25 1010.9
20260507011601 52 9 10.4 13.0 0.00 0.00 0.00 24 1010.6
20260507010058 52 40 10.4 13.9 0.00 0.00 0.00 23 1010.8
20260507004607 53 335 12.2 16.5 0.00 0.00 0.00 23 1010.9
20260507003116 53 329 11.3 17.4 0.00 0.00 0.00 22 1010.9
20260507001616 53 306 7.0 16.5 0.00 0.00 0.00 23 1011.0
20260506234603 53 281 10.4 19.1 0.00 0.00 0.00 23 1011.2
20260506233102 53 318 10.4 18.2 0.00 0.00 0.00 22 1011.2
20260506231608 53 306 7.0 14.8 0.00 0.00 0.00 22 1011.3
20260506230113 53 281 9.6 19.1 0.00 0.00 0.00 22 1011.3
20260506224604 54 305 7.8 15.6 0.00 0.00 0.00 22 1011.5
20260506223105 54 297 10.4 15.6 0.00 0.00 0.00 22 1011.4
20260506221614 53 330 9.6 16.5 0.00 0.00 0.00 23 1011.7
20260506220101 53 313 12.2 24.3 0.00 0.00 0.00 22 1011.8
20260506214559 52 309 11.3 20.0 0.00 0.00 0.00 23 1012.1
20260506213106 52 267 7.8 12.2 0.00 0.00 0.00 22 1012.3
20260506211600 52 265 8.7 19.1 0.00 0.00 0.00 22 1012.7
20260506204602 51 342 4.3 13.9 0.00 0.00 0.00 23 1013.0
20260506203121 51 298 8.7 15.6 0.00 0.00 0.00 23 1013.3
20260506201601 50 271 9.6 17.4 0.00 0.00 0.00 23 1013.4
20260506200059 50 277 2.6 14.8 0.00 0.00 0.00 24 1013.5
20260506194605 50 298 9.6 15.6 0.00 0.00 0.00 23 1013.9
20260506193106 49 319 8.7 19.1 0.00 0.00 0.00 24 1014.0
20260506191556 50 265 11.3 14.8 0.00 0.00 0.00 24 1014.2
20260506184559 48 273 5.2 13.0 0.00 0.00 0.00 24 1014.9
20260506183105 48 352 10.4 17.4 0.00 0.00 0.00 24 1015.1
20260506181604 48 311 8.7 21.7 0.00 0.00 0.00 24 1015.4
20260506180058 47 315 4.3 13.9 0.00 0.00 0.00 27 1015.8
20260506174559 46 241 1.7 12.2 0.00 0.00 0.00 26 1016.0
20260506173109 46 290 7.8 14.8 0.00 0.00 0.00 26 1016.2
20260506171558 46 338 7.8 15.6 0.00 0.00 0.00 26 1016.5